Flag Weather past 2 weeks in Kempten, Bavaria, Germany

Now
34 °F

Sunny.


Feels Like: 34 °F
Forecast: 33 / 53 °F
Wind: 1 mph from East

Location: Kempten

Current Time: Nov 28, 2014 at 10:47:53 AM

Latest Report: Nov 28, 2014 at 10:00 AM


Visibility: 19 mi

Pressure: 29.88 "Hg

Humidity: 90%

Dew point: 31 °F

Location of KemptenLocation

Historic Weather in Kempten — Graph

°F

Kempten temperature yesterday

Maximum temperature yesterday: 44 °F (at 2:00 PM)
Minimum temperature yesterday: 36 °F (at 9:00 AM)
Average temperature yesterday: 40 °F

Past Weeks' High & Low Weather Summary

 TemperatureHumidityPressure
High60 °F (Nov 23, 2:00 PM)100% (Nov 15, 8:00 AM)30.37 "Hg (Nov 15, 8:00 AM)
Low28 °F (Nov 20, 5:00 AM)46% (Nov 23, 2:00 PM)29.53 "Hg (Nov 15, 11:00 PM)
Average41 °F90%29.99 "Hg
* Reported Nov 13 9:00 AM — Nov 28 9:00 AM, Kempten, Weather by CustomWeather, © 2014

Note: Actual official high and low records may vary slightly from our data, if they occured in-between our weather recording intervals... More about our weather records

Advertising

Kempten weather history for previous 24 hours

 ConditionsComfort  
Time TempWeatherWind HumidityBarometerVisibility
9:00 AM
Nov 28
31 °FSunny.1 mph97%29.90 "Hg25 mi
8:00 AM31 °FSunny.1 mph98%29.89 "Hg15 mi
7:00 AM31 °FClear.1 mph99%29.87 "Hg7 mi
6:00 AM31 °FLow clouds.1 mph100%29.87 "Hg0 mi
5:00 AM33 °FLow clouds.2 mph100%29.87 "Hg0 mi
3:00 AM35 °FLow clouds.1 mph100%29.87 "Hg1 mi
2:00 AM37 °FLow clouds.2 mph100%29.86 "Hg0 mi
1:00 AM38 °FLow clouds.1 mph100%29.85 "Hg0 mi
12:00 AM38 °FLow clouds.2 mph99%29.85 "Hg1 mi
11:00 PM
Nov 27
40 °FLow clouds.1 mph99%29.84 "Hg0 mi
10:00 PM41 °FLow clouds.1 mph99%29.85 "Hg0 mi
9:00 PM41 °FLow clouds.1 mph98%29.84 "Hg1 mi
8:00 PM41 °FFog.1 mph97%29.83 "Hg3 mi
7:00 PM41 °FLow clouds.No wind95%29.82 "Hg6 mi
6:00 PM41 °FLow clouds.2 mph95%29.82 "Hg6 mi
5:00 PM41 °FLow clouds.2 mph94%29.81 "Hg11 mi
4:00 PM42 °FLow clouds.1 mph91%29.80 "Hg11 mi
3:00 PM43 °FPartly sunny.1 mph87%29.79 "Hg22 mi
2:00 PM44 °FScattered clouds.2 mph85%29.79 "Hg22 mi
1:00 PM42 °FOvercast.1 mph88%29.80 "Hg28 mi
12:00 PM41 °FScattered clouds.2 mph93%29.82 "Hg12 mi
11:00 AM38 °FScattered clouds.1 mph95%29.84 "Hg12 mi
Weather by CustomWeather, © 2014

See weather overviewHow to use our weather pages